CMP642 SKCL-SKBO

Flight info

Callsign CMP642
Flight time 1h 0m
Altitude 23000
Route ULQ1K ULQ W1 TOLIM TOLIM5E
Aircraft B738/M-SDE2E3FGHIRWXY/LB1

Departure

Time 2026-05-09 02:27
Airport Alfonso Bonilla Aragon International Airport (SKCL)

Arrival

Time 2026-05-09 03:28
Airport El Dorado International Airport (SKBO)
Time Latitude Longitude Altitude Speed Heading
2026-05-09 01:33 3.53854 -76.38793 3163 ft 0 kts 145°
2026-05-09 02:12 3.53863 -76.38799 3165 ft 2 kts 144°
2026-05-09 02:12 3.53876 -76.38809 3165 ft 2 kts 145°
2026-05-09 02:12 3.53889 -76.38819 3164 ft 2 kts 115°
2026-05-09 02:13 3.53885 -76.38833 3164 ft 2 kts 45°
2026-05-09 02:13 3.53874 -76.38844 3167 ft 2 kts 38°
2026-05-09 02:13 3.53860 -76.38853 3163 ft 2 kts 27°
2026-05-09 02:13 3.53849 -76.38858 3163 ft 1 kts 24°
2026-05-09 02:14 3.53848 -76.38859 3163 ft 0 kts 24°
2026-05-09 02:20 3.53868 -76.38848 3163 ft 5 kts 34°
2026-05-09 02:20 3.53900 -76.38820 3165 ft 6 kts 42°
2026-05-09 02:20 3.53921 -76.38778 3164 ft 10 kts 89°
2026-05-09 02:21 3.53911 -76.38695 3165 ft 13 kts 103°
2026-05-09 02:21 3.53851 -76.38629 3163 ft 16 kts 153°
2026-05-09 02:21 3.53759 -76.38563 3163 ft 16 kts 149°
2026-05-09 02:21 3.53665 -76.38509 3163 ft 15 kts 154°
2026-05-09 02:22 3.53565 -76.38474 3162 ft 15 kts 162°
2026-05-09 02:22 3.53466 -76.38482 3162 ft 14 kts 190°
2026-05-09 02:22 3.53371 -76.38498 3162 ft 14 kts 189°
2026-05-09 02:22 3.53281 -76.38515 3161 ft 13 kts 191°
2026-05-09 02:23 3.53193 -76.38530 3162 ft 13 kts 189°
2026-05-09 02:23 3.53106 -76.38546 3161 ft 13 kts 190°
2026-05-09 02:23 3.53017 -76.38561 3161 ft 9 kts 186°
2026-05-09 02:23 3.52988 -76.38541 3161 ft 7 kts 114°
2026-05-09 02:24 3.52981 -76.38509 3160 ft 0 kts 100°
2026-05-09 02:25 3.52977 -76.38487 3160 ft 5 kts 97°
2026-05-09 02:25 3.52994 -76.38442 3160 ft 10 kts 46°
2026-05-09 02:26 3.53040 -76.38397 3159 ft 6 kts 44°
2026-05-09 02:26 3.53087 -76.38382 3158 ft 4 kts
2026-05-09 02:26 3.53148 -76.38372 3159 ft 20 kts 10°
2026-05-09 02:26 3.53427 -76.38324 3162 ft 70 kts 10°
2026-05-09 02:27 3.54117 -76.38205 3167 ft 130 kts 10°
2026-05-09 02:27 3.55172 -76.38023 3202 ft 172 kts 10°
2026-05-09 02:27 3.56390 -76.37798 3562 ft 181 kts 11°
2026-05-09 02:27 3.57647 -76.37552 4037 ft 187 kts 10°
2026-05-09 02:28 3.58934 -76.37321 4535 ft 190 kts 11°
2026-05-09 02:28 3.60287 -76.37075 5216 ft 199 kts 10°
2026-05-09 02:28 3.61688 -76.36838 5836 ft 211 kts
2026-05-09 02:28 3.63156 -76.36593 6350 ft 218 kts 10°
2026-05-09 02:29 3.64680 -76.36332 6838 ft 227 kts 10°
2026-05-09 02:29 3.66265 -76.36051 7318 ft 235 kts 11°
2026-05-09 02:29 3.67905 -76.35759 7807 ft 243 kts 11°
2026-05-09 02:29 3.69595 -76.35456 8302 ft 251 kts 11°
2026-05-09 02:30 3.71315 -76.35019 8774 ft 260 kts 17°
2026-05-09 02:30 3.73071 -76.34484 9279 ft 268 kts 18°
2026-05-09 02:30 3.74882 -76.33930 9802 ft 276 kts 17°
2026-05-09 02:30 3.76745 -76.33369 10275 ft 283 kts 17°
2026-05-09 02:31 3.78664 -76.32796 10708 ft 296 kts 17°
2026-05-09 02:31 3.80674 -76.32156 11191 ft 309 kts 19°
2026-05-09 02:31 3.82744 -76.31444 11692 ft 320 kts 19°
2026-05-09 02:31 3.84884 -76.30696 12190 ft 332 kts 19°
2026-05-09 02:32 3.87097 -76.29923 12695 ft 342 kts 19°
2026-05-09 02:32 3.89344 -76.29142 13209 ft 351 kts 19°
2026-05-09 02:32 3.91709 -76.28324 13727 ft 359 kts 19°
2026-05-09 02:32 3.94061 -76.27513 14195 ft 366 kts 19°
2026-05-09 02:33 3.96491 -76.26676 14645 ft 371 kts 19°
2026-05-09 02:33 3.98939 -76.25833 15108 ft 372 kts 19°
2026-05-09 02:33 4.01392 -76.24989 15566 ft 374 kts 19°
2026-05-09 02:33 4.03858 -76.24140 16042 ft 377 kts 19°
2026-05-09 02:34 4.06345 -76.23266 16518 ft 381 kts 22°
2026-05-09 02:34 4.08578 -76.21849 16988 ft 383 kts 43°
2026-05-09 02:34 4.10225 -76.19749 17490 ft 386 kts 63°
2026-05-09 02:34 4.11285 -76.17275 18032 ft 389 kts 69°
2026-05-09 02:35 4.12249 -76.14727 18510 ft 393 kts 70°
2026-05-09 02:35 4.13200 -76.12157 18951 ft 396 kts 70°
2026-05-09 02:35 4.14165 -76.09568 19400 ft 398 kts 70°
2026-05-09 02:35 4.15150 -76.06966 19850 ft 400 kts 69°
2026-05-09 02:36 4.16148 -76.04363 20315 ft 402 kts 69°
2026-05-09 02:36 4.17160 -76.01741 20798 ft 404 kts 69°
2026-05-09 02:36 4.18176 -75.99116 21271 ft 406 kts 69°
2026-05-09 02:36 4.19198 -75.96476 21753 ft 407 kts 69°
2026-05-09 02:37 4.20223 -75.93829 22238 ft 408 kts 69°
2026-05-09 02:37 4.21251 -75.91173 22740 ft 409 kts 70°
2026-05-09 02:37 4.22293 -75.88507 23036 ft 415 kts 69°
2026-05-09 02:37 4.23365 -75.85788 23034 ft 425 kts 69°
2026-05-09 02:38 4.24465 -75.83010 23046 ft 430 kts 69°
2026-05-09 02:38 4.25562 -75.80238 23040 ft 427 kts 69°
2026-05-09 02:38 4.26651 -75.77484 23030 ft 423 kts 69°
2026-05-09 02:38 4.27731 -75.74750 23027 ft 421 kts 69°
2026-05-09 02:39 4.28804 -75.72030 23035 ft 419 kts 69°
2026-05-09 02:39 4.29875 -75.69312 23038 ft 420 kts 69°
2026-05-09 02:39 4.30948 -75.66590 23045 ft 421 kts 69°
2026-05-09 02:39 4.32024 -75.63859 23051 ft 422 kts 69°
2026-05-09 02:40 4.33105 -75.61115 23062 ft 424 kts 69°
2026-05-09 02:40 4.34189 -75.58362 23063 ft 425 kts 69°
2026-05-09 02:40 4.35278 -75.55599 23069 ft 427 kts 69°
2026-05-09 02:40 4.36366 -75.52837 23081 ft 427 kts 69°
2026-05-09 02:41 4.37458 -75.50067 23079 ft 428 kts 69°
2026-05-09 02:41 4.38702 -75.47360 23092 ft 427 kts 63°
2026-05-09 02:41 4.40127 -75.44749 23109 ft 427 kts 61°
2026-05-09 02:41 4.41620 -75.42173 23088 ft 427 kts 60°
2026-05-09 02:42 4.43118 -75.39603 23075 ft 427 kts 60°
2026-05-09 02:42 4.44602 -75.37026 23071 ft 427 kts 61°
2026-05-09 02:42 4.46069 -75.34439 23068 ft 426 kts 61°
2026-05-09 02:42 4.47519 -75.31851 23045 ft 426 kts 61°
2026-05-09 02:43 4.48962 -75.29257 23043 ft 426 kts 62°
2026-05-09 02:43 4.50399 -75.26667 23030 ft 426 kts 62°
2026-05-09 02:43 4.51837 -75.24071 23028 ft 425 kts 62°
2026-05-09 02:43 4.53270 -75.21486 23021 ft 425 kts 61°
2026-05-09 02:44 4.54711 -75.18888 22837 ft 427 kts 61°
2026-05-09 02:44 4.56150 -75.16293 22382 ft 423 kts 61°
2026-05-09 02:44 4.57569 -75.13734 22067 ft 415 kts 61°
2026-05-09 02:44 4.58950 -75.11246 21914 ft 402 kts 61°
2026-05-09 02:45 4.60289 -75.08833 21756 ft 391 kts 61°
2026-05-09 02:45 4.61598 -75.06473 21379 ft 386 kts 61°
2026-05-09 02:45 4.62902 -75.04127 20975 ft 383 kts 61°
2026-05-09 02:45 4.64195 -75.01798 20564 ft 381 kts 61°
2026-05-09 02:46 4.65480 -74.99486 20155 ft 379 kts 61°
2026-05-09 02:46 4.66760 -74.97180 19730 ft 377 kts 61°
2026-05-09 02:46 4.68034 -74.94886 19289 ft 377 kts 61°
2026-05-09 02:46 4.69306 -74.92594 18864 ft 375 kts 61°
2026-05-09 02:47 4.70570 -74.90316 18447 ft 374 kts 61°
2026-05-09 02:47 4.71832 -74.88043 17974 ft 372 kts 61°
2026-05-09 02:47 4.73083 -74.85787 17627 ft 367 kts 61°
2026-05-09 02:47 4.74299 -74.83597 17140 ft 366 kts 61°
2026-05-09 02:48 4.75771 -74.81559 16867 ft 358 kts 43°
2026-05-09 02:48 4.77809 -74.80216 16768 ft 346 kts 22°
2026-05-09 02:48 4.80082 -74.79604 16733 ft 333 kts
2026-05-09 02:48 4.82361 -74.79660 16740 ft 327 kts 353°
2026-05-09 02:49 4.84627 -74.79984 16742 ft 330 kts 351°
2026-05-09 02:49 4.86161 -74.80230 16743 ft 331 kts 351°
2026-05-09 02:49 4.89171 -74.80694 16715 ft 331 kts 352°
2026-05-09 02:49 4.91458 -74.81026 16697 ft 332 kts 352°
2026-05-09 02:50 4.93744 -74.81340 16679 ft 332 kts 355°
2026-05-09 02:50 4.96027 -74.81157 16663 ft 330 kts 15°
2026-05-09 02:50 4.98225 -74.80492 16646 ft 330 kts 18°
2026-05-09 02:50 5.00407 -74.79775 16635 ft 330 kts 18°
2026-05-09 02:51 5.02593 -74.79057 16616 ft 330 kts 18°
2026-05-09 02:51 5.04781 -74.78354 16605 ft 330 kts 18°
2026-05-09 02:51 5.06968 -74.77662 16597 ft 330 kts 17°
2026-05-09 02:51 5.09159 -74.76973 16588 ft 330 kts 17°
2026-05-09 02:52 5.11307 -74.76172 16570 ft 330 kts 30°
2026-05-09 02:52 5.13100 -74.74761 16595 ft 328 kts 43°
2026-05-09 02:52 5.14199 -74.73721 16588 ft 328 kts 44°
2026-05-09 02:52 5.15842 -74.72129 16592 ft 328 kts 44°
2026-05-09 02:53 5.17483 -74.70537 16598 ft 329 kts 44°
2026-05-09 02:53 5.19137 -74.68949 16608 ft 329 kts 44°
2026-05-09 02:53 5.20798 -74.67370 16618 ft 329 kts 43°
2026-05-09 02:53 5.22462 -74.65793 16628 ft 329 kts 43°
2026-05-09 02:54 5.24127 -74.64211 16641 ft 329 kts 45°
2026-05-09 02:54 5.25433 -74.62345 16650 ft 328 kts 66°
2026-05-09 02:54 5.26273 -74.60214 16675 ft 329 kts 70°
2026-05-09 02:54 5.27049 -74.58060 16694 ft 329 kts 70°
2026-05-09 02:55 5.27826 -74.55897 16714 ft 329 kts 70°
2026-05-09 02:55 5.28616 -74.53740 16735 ft 329 kts 70°
2026-05-09 02:55 5.29417 -74.51587 16741 ft 330 kts 69°
2026-05-09 02:55 5.30223 -74.49435 16746 ft 330 kts 69°
2026-05-09 02:56 5.30943 -74.47259 16742 ft 330 kts 80°
2026-05-09 02:56 5.30979 -74.44970 16778 ft 328 kts 94°
2026-05-09 02:56 5.30775 -74.42691 16768 ft 329 kts 95°
2026-05-09 02:56 5.30566 -74.40404 16771 ft 329 kts 95°
2026-05-09 02:57 5.30373 -74.38120 16779 ft 329 kts 95°
2026-05-09 02:57 5.30091 -74.35848 16775 ft 328 kts 106°
2026-05-09 02:57 5.29076 -74.33822 16798 ft 327 kts 129°
2026-05-09 02:57 5.27349 -74.32353 16809 ft 329 kts 152°
2026-05-09 02:58 5.25183 -74.31678 16815 ft 325 kts 174°
2026-05-09 02:58 5.22975 -74.31844 16809 ft 313 kts 194°
2026-05-09 02:58 5.20925 -74.32434 16809 ft 301 kts 197°
2026-05-09 02:58 5.18973 -74.33053 16802 ft 288 kts 197°
2026-05-09 02:59 5.17098 -74.33652 16655 ft 279 kts 197°
2026-05-09 02:59 5.15266 -74.34230 16323 ft 276 kts 197°
2026-05-09 02:59 5.13378 -74.34818 15428 ft 295 kts 197°
2026-05-09 02:59 5.11370 -74.35437 15001 ft 299 kts 196°
2026-05-09 03:00 5.09393 -74.36042 14786 ft 305 kts 196°
2026-05-09 03:00 5.07330 -74.36672 14567 ft 304 kts 196°
2026-05-09 03:00 5.05374 -74.37269 14404 ft 290 kts 196°
2026-05-09 03:00 5.03495 -74.37843 14176 ft 275 kts 196°
2026-05-09 03:01 5.01704 -74.38389 13967 ft 265 kts 196°
2026-05-09 03:01 4.99958 -74.38921 13763 ft 260 kts 196°
2026-05-09 03:01 4.98222 -74.39450 13577 ft 261 kts 196°
2026-05-09 03:01 4.96750 -74.39899 13424 ft 254 kts 196°
2026-05-09 03:02 4.95089 -74.40405 13231 ft 245 kts 196°
2026-05-09 03:02 4.93489 -74.40893 13049 ft 237 kts 196°
2026-05-09 03:02 4.91886 -74.41248 12907 ft 240 kts 177°
2026-05-09 03:02 4.90324 -74.40767 12874 ft 235 kts 146°
2026-05-09 03:03 4.89016 -74.39781 12686 ft 237 kts 139°
2026-05-09 03:03 4.87787 -74.38716 12578 ft 229 kts 136°
2026-05-09 03:03 4.86710 -74.37582 12450 ft 221 kts 128°
2026-05-09 03:03 4.85783 -74.36388 12337 ft 212 kts 126°
2026-05-09 03:04 4.84931 -74.35249 12207 ft 196 kts 126°
2026-05-09 03:04 4.84130 -74.34185 12113 ft 190 kts 126°
2026-05-09 03:04 4.83334 -74.33134 11999 ft 189 kts 127°
2026-05-09 03:04 4.82543 -74.32090 11969 ft 188 kts 126°
2026-05-09 03:05 4.81744 -74.31036 11757 ft 190 kts 126°
2026-05-09 03:05 4.80956 -74.29995 11530 ft 186 kts 126°
2026-05-09 03:05 4.80189 -74.28984 11307 ft 177 kts 126°
2026-05-09 03:05 4.79453 -74.28012 11073 ft 174 kts 126°
2026-05-09 03:06 4.78725 -74.27050 10850 ft 173 kts 126°
2026-05-09 03:06 4.77999 -74.26091 10625 ft 171 kts 126°
2026-05-09 03:06 4.77282 -74.25145 10412 ft 171 kts 126°
2026-05-09 03:06 4.76565 -74.24199 10189 ft 172 kts 126°
2026-05-09 03:07 4.75842 -74.23248 9992 ft 172 kts 127°
2026-05-09 03:07 4.75109 -74.22283 9794 ft 175 kts 127°
2026-05-09 03:07 4.74379 -74.21335 9577 ft 171 kts 127°
2026-05-09 03:07 4.73670 -74.20402 9336 ft 168 kts 126°
2026-05-09 03:08 4.72963 -74.19460 9101 ft 171 kts 126°
2026-05-09 03:08 4.72242 -74.18504 8795 ft 171 kts 126°
2026-05-09 03:08 4.71538 -74.17570 8550 ft 169 kts 126°
2026-05-09 03:08 4.70839 -74.16639 8377 ft 162 kts 127°
2026-05-09 03:09 4.70219 -74.15816 8385 ft 143 kts 128°
2026-05-09 03:09 4.69558 -74.14935 8650 ft 169 kts 126°
2026-05-09 03:09 4.68811 -74.13926 9136 ft 194 kts 126°
2026-05-09 03:09 4.67972 -74.12799 9786 ft 206 kts 127°
2026-05-09 03:10 4.67072 -74.11642 10313 ft 213 kts 127°
2026-05-09 03:10 4.65978 -74.10640 10740 ft 219 kts 156°
2026-05-09 03:10 4.64472 -74.10562 11208 ft 224 kts 198°
2026-05-09 03:10 4.63235 -74.11496 11689 ft 227 kts 231°
2026-05-09 03:11 4.62236 -74.12730 12184 ft 229 kts 227°
2026-05-09 03:11 4.61101 -74.13871 12652 ft 234 kts 221°
2026-05-09 03:11 4.60094 -74.15169 12963 ft 248 kts 250°
2026-05-09 03:11 4.59989 -74.16905 12990 ft 256 kts 287°
2026-05-09 03:12 4.60671 -74.18550 12996 ft 257 kts 285°
2026-05-09 03:12 4.60752 -74.20326 13014 ft 256 kts 267°
2026-05-09 03:12 4.60638 -74.22114 13000 ft 257 kts 266°
2026-05-09 03:12 4.60523 -74.23898 12986 ft 256 kts 266°
2026-05-09 03:13 4.60310 -74.27446 12972 ft 254 kts 267°
2026-05-09 03:13 4.60209 -74.29215 12966 ft 254 kts 267°
2026-05-09 03:13 4.60109 -74.30982 12953 ft 253 kts 267°
2026-05-09 03:14 4.60012 -74.32742 12951 ft 252 kts 267°
2026-05-09 03:14 4.59916 -74.34496 12945 ft 252 kts 267°
2026-05-09 03:14 4.59819 -74.36256 12942 ft 253 kts 267°
2026-05-09 03:14 4.59724 -74.38000 12931 ft 255 kts 267°
2026-05-09 03:15 4.59626 -74.39798 12913 ft 256 kts 267°
2026-05-09 03:15 4.59529 -74.41581 12895 ft 256 kts 267°
2026-05-09 03:15 4.59433 -74.43341 12879 ft 257 kts 267°
2026-05-09 03:15 4.59336 -74.45128 12865 ft 257 kts 268°
2026-05-09 03:16 4.59612 -74.46876 12842 ft 255 kts 296°
2026-05-09 03:16 4.60692 -74.48235 12831 ft 251 kts 326°
2026-05-09 03:16 4.62249 -74.48967 12840 ft 247 kts 345°
2026-05-09 03:16 4.63924 -74.49363 12834 ft 247 kts 350°
2026-05-09 03:17 4.65612 -74.49698 12830 ft 248 kts 350°
2026-05-09 03:17 4.67307 -74.50030 12824 ft 249 kts 350°
2026-05-09 03:17 4.69005 -74.50370 12822 ft 249 kts 350°
2026-05-09 03:17 4.70700 -74.50716 12831 ft 249 kts 349°
2026-05-09 03:18 4.72403 -74.51067 12823 ft 250 kts 349°
2026-05-09 03:18 4.74102 -74.51422 12819 ft 250 kts 349°
2026-05-09 03:18 4.75808 -74.51781 12824 ft 250 kts 349°
2026-05-09 03:18 4.77510 -74.52140 12813 ft 250 kts 349°
2026-05-09 03:19 4.79214 -74.52500 12811 ft 250 kts 349°
2026-05-09 03:19 4.80914 -74.52860 12811 ft 250 kts 349°
2026-05-09 03:19 4.82614 -74.53220 12815 ft 250 kts 349°
2026-05-09 03:19 4.84319 -74.53530 12794 ft 249 kts 360°
2026-05-09 03:20 4.85973 -74.53151 12806 ft 244 kts 31°
2026-05-09 03:20 4.87192 -74.52003 12815 ft 241 kts 58°
2026-05-09 03:20 4.87916 -74.50494 12827 ft 241 kts 69°
2026-05-09 03:20 4.88504 -74.48919 12825 ft 242 kts 70°
2026-05-09 03:21 4.89089 -74.47333 12829 ft 243 kts 70°
2026-05-09 03:21 4.89689 -74.45740 12825 ft 244 kts 70°
2026-05-09 03:21 4.90228 -74.44155 12821 ft 244 kts 81°
2026-05-09 03:21 4.89977 -74.42510 12861 ft 242 kts 115°
2026-05-09 03:22 4.89156 -74.41063 12860 ft 234 kts 121°
2026-05-09 03:22 4.88276 -74.39745 12885 ft 221 kts 124°
2026-05-09 03:22 4.87377 -74.38490 12907 ft 222 kts 125°
2026-05-09 03:22 4.86457 -74.37254 12899 ft 220 kts 126°
2026-05-09 03:23 4.85536 -74.36039 12893 ft 218 kts 126°
2026-05-09 03:23 4.84602 -74.34807 12627 ft 224 kts 126°
2026-05-09 03:23 4.83658 -74.33562 12353 ft 224 kts 126°
2026-05-09 03:23 4.82721 -74.32325 12082 ft 221 kts 126°
2026-05-09 03:24 4.81796 -74.31105 11789 ft 217 kts 126°
2026-05-09 03:24 4.80911 -74.29937 11514 ft 202 kts 126°
2026-05-09 03:24 4.80092 -74.28856 11256 ft 187 kts 126°
2026-05-09 03:24 4.79338 -74.27861 11069 ft 176 kts 126°
2026-05-09 03:25 4.78608 -74.26896 10815 ft 171 kts 126°
2026-05-09 03:25 4.77888 -74.25946 10604 ft 172 kts 126°
2026-05-09 03:25 4.77170 -74.24997 10371 ft 173 kts 127°
2026-05-09 03:25 4.76449 -74.24046 10143 ft 171 kts 126°
2026-05-09 03:26 4.75735 -74.23103 9910 ft 170 kts 127°
2026-05-09 03:26 4.75018 -74.22156 9690 ft 170 kts 126°
2026-05-09 03:26 4.74308 -74.21218 9462 ft 168 kts 126°
2026-05-09 03:26 4.73597 -74.20278 9216 ft 170 kts 127°
2026-05-09 03:27 4.72878 -74.19336 8939 ft 171 kts 127°
2026-05-09 03:27 4.72163 -74.18388 8720 ft 169 kts 126°
2026-05-09 03:27 4.71452 -74.17449 8505 ft 168 kts 126°
2026-05-09 03:27 4.70768 -74.16542 8369 ft 155 kts 126°
2026-05-09 03:28 4.70201 -74.15799 8362 ft 106 kts 128°
2026-05-09 03:28 4.69887 -74.15385 8365 ft 45 kts 127°
2026-05-09 03:28 4.69737 -74.15143 8364 ft 29 kts 107°
2026-05-09 03:28 4.69705 -74.14988 8363 ft 17 kts 98°
2026-05-09 03:29 4.69701 -74.14962 8363 ft 0 kts 97°
2026-05-09 03:29 4.69701 -74.14958 8363 ft 3 kts 96°
2026-05-09 03:29 4.69696 -74.14917 8363 ft 10 kts 96°
2026-05-09 03:30 4.69708 -74.14850 8363 ft 10 kts 60°
2026-05-09 03:30 4.69758 -74.14804 8364 ft 10 kts 39°
2026-05-09 03:30 4.69814 -74.14762 8364 ft 10 kts 36°
2026-05-09 03:30 4.69868 -74.14720 8364 ft 10 kts 37°
2026-05-09 03:31 4.69922 -74.14679 8364 ft 10 kts 37°
2026-05-09 03:31 4.69981 -74.14634 8364 ft 11 kts 36°
2026-05-09 03:31 4.70035 -74.14589 8364 ft 9 kts 66°
2026-05-09 03:31 4.70006 -74.14533 8364 ft 10 kts 126°
2026-05-09 03:32 4.69965 -74.14476 8364 ft 10 kts 127°
2026-05-09 03:32 4.69927 -74.14426 8364 ft 5 kts 127°
2026-05-09 03:32 4.69911 -74.14423 8364 ft 5 kts 197°
2026-05-09 03:32 4.69880 -74.14448 8364 ft 6 kts 224°
2026-05-09 03:33 4.69877 -74.14451 8364 ft 1 kts 225°
2026-05-09 03:33 4.69874 -74.14455 8364 ft 0 kts 229°
2026-05-09 03:33 4.69872 -74.14456 8364 ft 0 kts 227°